Temperature
17 17 17 17 17 17 17 17 17 17 17 17 17 17 17 17 17 17 18 18 18 17 17 17 17 17 17 17 17 17 17 17 17 17 17 17 17 17 17 17 17 16 16
17 16 16 16 16 17 17 17 17 17 17 16 17 17 17 17 17 17 17 18 18 17 17 17 17 17 17 17 17 17 17 17 17 17 17 17 17 17 17 17 17 17 16
16 16 16 16 16 16 16 16 16 16 16 16 16 16 16 16 17 17 17 17 17 17 17 17 17 17 17 17 17 17 17 17 17 17 17 17 17 17 17 17 17 17 16
15 15 15 15 15 15 15 15 15 15 16 15 16 16 16 16 16 16 16 17 17 17 17 17 17 17 17 17 17 17 17 17 17 17 17 17 17 17 17 17 17 17 16
15 15 15 14 14 15 15 15 15 15 15 15 15 15 15 16 16 16 16 16 17 17 17 17 17 17 17 17 17 17 17 17 17 17 17 17 17 17 17 17 17 17 17
14 14 14 14 14 14 14 14 14 14 14 14 14 15 15 15 15 16 16 16 16 17 17 17 17 17 17 17 17 17 17 17 17 17 17 17 17 17 17 17 17 17 17
14 14 14 13 13 13 13 13 13 13 13 13 14 14 15 15 15 15 16 16 16 16 16 17 17 17 17 17 17 17 17 17 17 17 17 17 17 17 17 17 17 17 17
13 13 13 13 13 13 13 13 13 13 13 13 13 13 14 14 15 15 15 15 15 15 16 16 16 16 17 17 17 17 16 16 17 17 17 17 16 16 16 16 17 17 17
12 12 12 12 12 12 12 12 12 12 12 12 12 12 12 13 13 14 15 15 15 15 15 15 16 16 16 16 16 17 16 16 16 17 17 16 16 16 16 16 16 16 16
11 11 11 11 11 11 12 12 12 12 12 12 12 12 12 12 12 13 14 14 14 14 15 15 15 16 16 16 16 16 16 16 16 16 16 16 16 16 16 16 16 16 16
11 11 11 11 11 11 11 11 11 11 11 11 11 11 12 12 12 11 12 13 14 14 14 15 15 15 16 16 16 16 16 16 16 16 16 16 16 16 16 16 16 16 16
10 10 10 10 10 10 10 11 11 11 11 11 11 11 11 11 11 11 11 12 13 14 14 14 15 15 15 16 16 16 16 17 17 17 16 16 16 16 16 16 16 16 16
10 10 10 10 9 9 10 10 10 10 10 10 10 11 11 11 11 11 11 11 12 13 14 14 15 15 15 16 16 16 16 16 17 17 17 17 16 16 16 16 16 16 16
10 9 9 9 9 9 9 9 9 9 10 10 10 10 10 10 10 10 10 10 11 12 13 14 14 15 15 15 16 16 16 16 17 17 17 17 16 16 16 16 16 16 16
9 9 9 9 9 9 9 9 9 9 9 9 9 9 10 10 10 10 10 10 10 10 12 13 14 14 14 15 15 15 16 16 16 17 17 17 16 16 16 16 16 16 16
9 9 9 9 9 9 9 9 8 8 8 9 9 9 9 9 10 10 10 10 10 10 10 12 13 13 14 14 15 15 15 16 16 16 16 16 16 16 16 16 16 16 16
9 9 9 9 9 9 9 8 8 8 8 8 8 9 9 9 9 9 10 10 10 10 10 11 12 13 14 14 14 15 15 15 16 16 16 16 16 16 16 16 16 16 16
9 9 9 9 9 9 8 8 8 8 8 8 8 8 8 9 9 9 9 9 10 10 10 10 11 12 13 14 14 15 15 15 16 16 16 16 16 16 16 16 16 16 16
9 9 9 9 9 8 8 8 8 8 8 8 8 8 8 8 8 9 9 9 9 10 10 10 11 11 12 13 13 14 14 15 15 15 16 16 16 16 16 16 16 16 16
9 9 8 8 8 8 8 8 8 8 8 8 8 8 8 8 8 8 9 9 9 9 9 10 10 11 11 12 13 13 14 14 14 15 15 15 15 15 15 15 15 15 16
9 8 8 8 8 8 8 8 8 8 8 8 8 8 8 8 8 8 8 8 9 9 9 9 10 10 11 12 12 13 13 13 13 14 14 14 14 15 15 15 15 15 15
8 8 8 8 8 8 8 8 8 8 8 8 8 8 8 8 8 8 8 8 8 8 9 9 10 10 11 11 12 12 12 12 13 13 13 13 13 14 14 14 15 15 15
8 8 8 8 8 8 8 8 8 8 8 8 8 8 8 8 8 8 8 8 8 8 8 9 9 10 10 11 11 12 12 12 13 13 13 12 12 12 13 13 14 14 15
8 8 8 8 8 8 8 8 8 8 8 8 8 7 7 7 7 7 7 7 8 8 8 8 9 9 10 10 11 11 11 12 12 12 12 12 11 12 12 12 13 14 14
8 8 8 8 8 8 8 8 8 7 7 7 7 7 7 7 7 7 7 7 7 8 8 8 9 9 10 10 10 11 11 11 11 11 12 12 11 11 11 11 12 12 13
8 8 8 8 8 8 8 8 7 7 7 7 7 7 7 7 7 7 7 7 7 7 8 8 8 9 9 10 10 10 11 11 11 11 11 11 11 11 11 11 11 12 12
Wind_Speed
1 2 2 3 4 4 5 5 5 6 6 9 12 13 13 14 15 15 14 18 20 21 22 24 25 26 27 27 26 26 25 24 23 23 22 21 20 20 19 19 18 17 17
1 1 2 2 3 3 4 4 5 5 5 5 8 10 11 13 15 15 15 17 20 22 23 24 26 27 28 28 28 27 27 26 26 25 24 23 22 22 21 20 19 19 18
0 0 1 1 2 3 4 3 4 3 4 5 7 8 8 11 12 15 16 16 16 20 23 24 26 27 29 29 29 28 28 28 28 27 26 25 24 23 22 21 21 20 20
1 0 0 2 3 3 2 2 2 3 4 5 6 7 7 8 11 13 15 16 16 17 20 23 25 26 29 30 30 29 29 29 29 28 28 27 26 25 24 23 22 21 21
2 0 1 2 3 2 2 2 2 2 3 5 6 7 7 8 10 11 12 15 17 18 17 19 23 25 28 30 30 29 29 29 30 29 29 29 28 27 26 25 24 23 22
3 2 1 2 3 2 2 2 3 2 3 4 6 7 7 8 9 10 12 11 14 17 18 18 18 19 25 29 30 30 30 30 30 30 30 30 29 28 28 27 26 25 24
5 3 2 3 2 2 3 3 2 3 3 2 3 5 5 7 9 9 9 9 11 13 15 16 16 16 16 24 29 30 30 30 30 30 31 31 30 30 29 28 27 27 26
6 4 3 3 3 3 4 3 1 1 2 2 2 3 4 4 3 6 7 8 9 8 10 14 14 15 16 16 20 27 30 30 30 30 31 32 31 31 31 30 29 28 27
7 5 5 3 3 3 3 3 2 2 2 2 2 2 2 3 4 3 4 6 6 6 7 7 11 15 17 17 17 22 29 30 30 30 31 32 31 31 31 31 30 29 28
6 6 5 4 3 3 4 4 3 3 2 3 2 3 4 3 3 4 3 3 5 6 7 8 9 12 16 16 18 20 26 30 31 32 32 31 31 30 31 31 30 30 29
6 6 6 4 3 3 3 4 3 3 3 3 3 2 3 3 4 4 5 4 4 4 6 7 8 8 13 16 17 21 24 26 29 30 31 31 31 31 31 31 31 30 29
5 5 5 4 4 3 4 4 4 4 4 4 4 3 3 3 2 3 5 6 6 5 5 6 7 8 10 13 18 21 24 25 26 28 29 31 31 31 31 31 30 30 29
4 6 5 4 4 4 5 4 4 4 4 5 5 4 4 5 4 3 4 5 5 5 4 4 5 5 8 11 14 20 22 25 26 27 28 29 30 30 31 31 30 29 28
6 7 7 6 6 6 6 5 4 5 4 5 6 6 5 5 5 4 3 4 5 4 3 4 2 3 4 7 11 16 16 22 24 25 26 27 28 29 29 29 29 28 28
7 7 7 7 7 7 6 5 5 6 5 6 6 6 5 5 5 5 5 5 4 5 4 3 2 2 2 4 7 10 11 16 21 23 25 25 26 27 28 28 28 28 27
7 8 8 8 8 7 7 6 6 7 7 7 6 6 6 5 5 5 5 5 5 5 5 3 3 4 5 4 3 6 8 11 16 20 22 23 24 25 26 27 27 27 26
8 8 9 8 8 9 8 7 8 8 8 8 7 7 8 7 6 5 5 5 6 5 8 6 4 4 4 3 2 2 3 4 7 14 18 20 21 23 24 25 25 26 25
8 9 9 9 10 9 8 8 9 9 9 10 9 9 9 7 8 6 6 7 6 6 6 8 5 4 3 2 2 2 1 2 3 8 12 15 17 18 20 21 22 23 23
9 9 8 9 10 10 10 10 10 10 10 10 10 10 10 9 9 7 7 7 6 7 6 6 6 4 3 2 1 2 3 3 3 6 9 10 12 14 16 17 18 19 19
9 10 10 10 10 11 11 11 10 11 10 10 10 10 10 10 10 10 8 8 8 7 7 7 6 4 4 2 3 3 3 3 3 4 6 7 9 10 12 14 15 17 18
10 10 10 10 10 10 10 11 11 11 11 11 11 10 11 13 14 11 9 8 8 7 7 7 7 5 5 4 4 4 5 5 3 3 5 4 5 5 6 9 12 15 16
10 10 10 11 11 10 12 14 13 11 11 11 12 11 11 13 15 16 17 15 12 10 9 8 7 7 7 5 3 5 6 6 4 4 5 3 4 5 4 5 10 14 16
10 10 11 11 12 13 15 16 17 12 12 12 12 11 11 11 12 11 13 15 15 16 14 10 9 9 8 6 6 7 8 7 5 7 6 4 3 4 4 7 12 14 15
10 10 11 11 11 13 15 15 15 12 11 12 12 12 12 12 12 11 11 11 11 12 12 11 10 10 9 7 6 6 6 5 5 5 5 4 3 3 4 7 10 13 15
10 10 10 11 12 13 14 14 12 8 8 11 11 11 12 13 14 14 12 12 12 11 11 12 12 11 11 10 7 6 7 9 6 4 2 4 4 3 3 3 7 12 14
10 11 11 11 11 12 13 14 11 6 8 9 9 10 13 14 14 14 13 12 12 11 9 8 9 10 10 10 12 10 9 9 7 5 4 5 6 5 4 2 3 6 10
Wind_Direction
265 269 276 280 278 282 283 281 274 270 259 248 241 237 234 233 235 233 235 234 233 231 231 229 225 218 213 209 207 205 205 204 201 197 196 195 192 191 190 189 187 186 185
243 263 279 280 287 291 287 285 281 276 270 262 255 248 241 236 237 236 236 239 239 235 232 232 230 224 218 213 211 209 207 206 204 200 199 198 196 195 194 194 193 191 191
33 276 295 308 310 310 306 299 289 279 274 266 262 257 251 244 239 237 238 238 240 240 237 233 231 228 223 218 214 212 210 208 206 203 201 200 200 198 197 197 197 196 196
63 90 309 299 312 323 315 301 294 291 276 270 266 263 257 251 246 241 238 236 236 239 239 236 232 228 225 221 218 215 213 211 209 206 204 203 202 201 199 199 199 199 200
22 35 291 300 318 322 315 307 303 281 282 280 273 265 256 252 250 248 241 237 234 234 234 235 233 230 228 224 221 218 217 215 212 209 207 205 205 203 202 201 201 201 202
7 6 328 328 330 320 314 311 298 285 271 279 282 276 262 253 248 244 242 239 235 234 231 230 231 232 230 226 223 220 219 218 215 212 211 209 208 206 204 203 202 203 203
355 346 328 316 309 288 279 286 290 301 295 296 297 296 280 256 248 243 239 240 238 235 230 226 225 225 228 226 222 222 222 221 219 215 213 212 210 208 205 204 204 204 205
342 334 311 298 288 279 285 283 259 292 295 310 296 308 313 313 282 247 237 238 241 237 233 229 225 222 222 220 220 221 223 222 220 218 217 215 211 209 206 206 205 205 206
331 326 310 289 279 252 259 262 236 231 267 290 255 262 299 302 316 290 251 244 243 240 239 234 229 226 223 220 218 221 221 221 220 220 220 216 211 210 208 207 207 206 208
317 317 312 300 281 264 260 261 237 221 227 267 287 250 247 260 284 306 299 270 260 251 247 244 238 230 224 220 218 218 222 221 218 219 219 216 211 210 209 208 209 209 209
305 304 304 301 288 271 263 259 253 230 219 232 247 266 268 264 249 269 293 308 303 271 256 247 242 234 227 222 219 220 219 220 219 218 217 215 212 210 209 209 210 211 211
295 293 292 288 283 276 270 263 254 246 234 235 242 241 243 257 267 263 279 299 299 288 274 250 238 234 229 224 222 220 218 218 216 215 214 213 211 210 209 209 211 212 213
282 285 287 278 275 270 270 265 259 255 242 238 240 241 241 245 249 255 274 289 295 295 280 259 242 236 235 226 225 222 219 216 215 214 212 211 209 208 207 208 209 212 213
269 276 278 272 268 267 270 262 259 260 251 246 251 247 248 250 245 242 250 279 298 294 275 276 283 257 247 234 227 222 223 216 213 212 211 209 206 205 205 205 207 209 211
272 273 273 274 273 269 266 262 258 262 261 254 254 253 249 253 249 245 244 244 262 290 295 288 290 317 301 265 236 223 224 218 211 209 207 205 204 202 201 202 204 207 209
273 278 279 276 275 272 267 258 258 260 260 259 252 251 251 251 250 247 242 242 240 252 273 283 293 305 304 290 256 226 222 216 211 205 202 202 201 200 200 201 203 206 208
278 278 278 279 278 276 270 261 258 257 255 258 256 250 252 251 249 247 243 242 242 242 263 279 274 289 287 277 265 217 205 201 201 198 195 196 196 196 197 198 201 204 205
279 277 277 277 277 276 270 264 266 264 255 256 256 251 254 254 248 245 241 241 242 239 248 272 285 286 282 265 233 180 151 147 155 169 177 184 189 191 192 194 197 200 202
282 282 277 274 275 274 273 268 263 263 258 255 253 249 250 249 251 247 241 241 243 245 239 254 271 274 275 247 206 162 137 127 116 130 145 160 173 180 186 190 191 194 195
281 281 279 275 273 273 273 271 268 265 262 257 252 248 246 243 245 246 243 240 241 243 243 246 257 263 260 240 198 178 160 145 129 114 113 123 141 154 170 178 182 184 186
281 277 279 278 275 274 269 265 264 265 262 262 258 251 247 244 242 240 238 235 232 235 238 239 245 251 246 220 207 182 166 143 121 127 121 113 120 124 139 158 168 172 173
285 282 279 277 277 274 269 268 268 268 265 263 262 257 252 253 252 248 243 237 227 227 230 232 233 238 241 224 208 185 162 159 157 149 133 111 105 107 96 118 144 153 157
286 285 283 278 276 274 270 271 271 269 264 262 259 257 258 254 246 242 243 242 238 233 226 227 232 232 233 221 201 194 186 174 160 156 137 118 100 96 74 92 124 137 143
286 285 284 282 279 278 273 270 271 270 264 260 257 253 253 255 250 239 238 240 240 239 234 233 235 234 230 219 208 198 181 150 120 138 134 124 110 91 70 70 101 124 133
289 287 285 283 281 281 277 273 272 269 264 264 261 255 251 252 246 234 234 237 241 242 242 235 228 231 224 212 200 180 173 168 160 152 120 123 125 103 79 63 74 105 122
286 290 288 284 279 279 278 275 272 262 265 268 266 260 252 249 244 230 230 230 235 238 235 233 226 229 228 216 202 196 187 183 163 156 161 133 137 134 115 81 69 92 106
Height
1541 1540 1540 1540 1540 1539 1539 1539 1539 1540 1540 1541 1541 1542 1543 1544 1545 1546 1548 1550 1552 1554 1556 1559 1561 1563 1566 1568 1571 1573 1575 1578 1581 1583 1586 1588 1591 1593 1596 1598 1600 1602 1604
1538 1538 1537 1537 1536 1535 1535 1534 1534 1535 1535 1535 1535 1536 1537 1538 1539 1541 1542 1544 1546 1548 1551 1553 1556 1558 1561 1564 1566 1569 1571 1574 1577 1580 1583 1585 1588 1591 1594 1596 1599 1601 1603
1535 1535 1534 1533 1532 1531 1531 1530 1530 1529 1529 1529 1529 1530 1530 1531 1532 1534 1536 1538 1539 1541 1544 1547 1549 1552 1555 1558 1561 1564 1567 1570 1573 1576 1579 1582 1585 1588 1591 1594 1596 1599 1601
1532 1532 1531 1530 1529 1528 1527 1526 1525 1524 1524 1523 1523 1523 1524 1524 1525 1527 1528 1530 1532 1534 1536 1539 1542 1546 1549 1553 1556 1559 1562 1565 1569 1572 1575 1578 1582 1585 1588 1591 1594 1596 1599
1530 1529 1528 1527 1526 1525 1524 1523 1521 1520 1519 1518 1517 1517 1517 1517 1518 1519 1520 1522 1524 1526 1529 1532 1535 1539 1542 1546 1550 1553 1556 1560 1563 1567 1570 1574 1578 1581 1584 1587 1590 1593 1596
1527 1526 1525 1524 1523 1522 1521 1519 1518 1517 1515 1514 1512 1511 1511 1511 1511 1511 1512 1514 1516 1518 1521 1524 1528 1531 1535 1539 1543 1546 1550 1553 1557 1561 1565 1569 1573 1576 1580 1583 1587 1590 1593
1524 1522 1521 1520 1519 1518 1517 1516 1515 1513 1512 1510 1509 1506 1505 1505 1504 1504 1505 1506 1508 1510 1513 1516 1520 1524 1527 1531 1535 1539 1543 1546 1551 1555 1559 1563 1567 1571 1575 1579 1582 1586 1589
1520 1518 1517 1516 1515 1514 1514 1513 1512 1510 1509 1508 1506 1504 1501 1501 1499 1499 1499 1500 1501 1503 1505 1507 1511 1515 1520 1523 1527 1531 1535 1539 1544 1548 1552 1557 1561 1566 1570 1574 1577 1581 1585
1516 1514 1512 1511 1511 1510 1510 1509 1508 1507 1506 1506 1504 1504 1501 1498 1496 1495 1495 1495 1495 1496 1498 1500 1504 1508 1512 1516 1519 1523 1528 1532 1537 1541 1545 1550 1555 1560 1564 1568 1572 1576 1580
1512 1510 1509 1508 1507 1506 1505 1505 1505 1504 1503 1502 1502 1501 1500 1499 1497 1493 1491 1491 1491 1492 1493 1494 1497 1500 1504 1508 1511 1516 1520 1525 1529 1534 1538 1543 1548 1553 1557 1562 1566 1571 1574
1509 1507 1505 1504 1503 1502 1501 1501 1500 1500 1499 1499 1498 1497 1496 1495 1494 1492 1489 1488 1488 1488 1488 1489 1491 1494 1497 1500 1504 1508 1512 1517 1522 1527 1531 1536 1541 1546 1551 1556 1560 1565 1569
1505 1503 1501 1499 1498 1497 1497 1496 1496 1495 1495 1494 1494 1493 1493 1492 1491 1489 1487 1485 1484 1484 1484 1485 1486 1488 1491 1494 1497 1501 1505 1510 1515 1519 1524 1529 1534 1539 1544 1549 1553 1558 1562
1500 1499 1497 1495 1494 1493 1492 1491 1490 1490 1490 1489 1489 1489 1489 1488 1487 1487 1485 1483 1481 1479 1480 1480 1481 1483 1485 1488 1491 1494 1498 1503 1508 1513 1517 1522 1527 1532 1537 1542 1547 1552 1556
1496 1494 1492 1491 1489 1488 1487 1486 1485 1485 1484 1484 1484 1484 1484 1484 1483 1483 1482 1481 1478 1477 1476 1476 1477 1479 1481 1483 1485 1488 1492 1497 1501 1506 1511 1515 1521 1526 1531 1536 1541 1546 1550
1492 1490 1488 1486 1485 1483 1482 1481 1480 1479 1479 1478 1478 1478 1478 1478 1479 1479 1478 1478 1478 1475 1473 1473 1474 1475 1476 1478 1480 1483 1486 1490 1495 1499 1504 1509 1514 1520 1525 1529 1534 1539 1544
1487 1485 1483 1482 1480 1479 1477 1476 1474 1474 1473 1473 1472 1472 1472 1473 1473 1473 1474 1474 1474 1473 1471 1469 1470 1471 1472 1474 1475 1478 1481 1484 1489 1493 1498 1503 1508 1513 1518 1523 1528 1534 1538
1482 1480 1478 1477 1475 1473 1472 1470 1469 1468 1467 1467 1467 1466 1466 1467 1467 1468 1468 1468 1469 1469 1467 1465 1466 1467 1468 1470 1471 1473 1476 1480 1483 1488 1493 1498 1503 1508 1513 1518 1523 1528 1532
1478 1475 1473 1471 1469 1468 1466 1465 1463 1462 1461 1461 1460 1460 1460 1461 1461 1462 1462 1462 1463 1463 1463 1462 1462 1463 1464 1466 1467 1469 1472 1475 1479 1483 1488 1493 1498 1503 1508 1512 1517 1522 1527
1472 1470 1468 1466 1464 1462 1460 1459 1457 1456 1455 1454 1454 1453 1454 1454 1454 1455 1456 1456 1457 1458 1458 1458 1458 1459 1460 1462 1463 1465 1468 1471 1475 1479 1484 1489 1493 1498 1503 1508 1512 1516 1521
1467 1465 1463 1460 1458 1456 1454 1453 1451 1449 1448 1448 1447 1447 1447 1447 1448 1449 1449 1450 1451 1452 1453 1453 1454 1455 1456 1458 1460 1461 1464 1468 1471 1476 1480 1484 1489 1493 1498 1502 1507 1511 1516
1462 1459 1457 1454 1452 1450 1448 1446 1444 1443 1441 1440 1440 1440 1440 1440 1440 1442 1443 1444 1445 1446 1447 1448 1449 1450 1452 1454 1456 1458 1461 1464 1468 1472 1476 1480 1484 1488 1493 1497 1502 1506 1511
1456 1453 1451 1448 1445 1443 1441 1440 1438 1436 1434 1433 1432 1432 1433 1433 1434 1435 1436 1437 1439 1440 1441 1443 1444 1445 1447 1449 1452 1454 1457 1461 1464 1468 1472 1476 1480 1484 1488 1493 1497 1502 1506
1450 1447 1444 1442 1439 1437 1435 1433 1431 1429 1427 1426 1425 1425 1425 1425 1426 1427 1428 1429 1431 1433 1435 1437 1438 1440 1442 1444 1447 1449 1452 1456 1460 1464 1469 1473 1477 1481 1485 1489 1494 1498 1502
1445 1441 1438 1435 1432 1430 1428 1426 1425 1422 1420 1419 1418 1418 1417 1417 1418 1419 1420 1421 1423 1426 1428 1430 1432 1435 1438 1440 1442 1445 1448 1452 1456 1461 1466 1470 1475 1479 1483 1487 1491 1495 1499
1439 1436 1432 1429 1426 1424 1422 1420 1418 1415 1413 1412 1411 1410 1410 1409 1410 1412 1413 1413 1415 1418 1421 1424 1426 1429 1432 1435 1437 1441 1443 1447 1451 1456 1460 1466 1471 1476 1480 1484 1488 1492 1497
1434 1430 1427 1424 1421 1418 1416 1414 1412 1409 1407 1405 1404 1403 1402 1402 1403 1404 1405 1406 1407 1410 1414 1417 1420 1423 1425 1429 1432 1435 1438 1442 1446 1450 1455 1461 1467 1472 1478 1482 1486 1490 1494